Starlink 4375

operational
NORAD ID: 53192 Int'l Des: 2022-084 Owner: SPXS Country: US Constellation: starlink
LEOCIRCULARRETROGRADESSO

Über Starlink 4375

Beschreibung wird geladen...

Live-Position

3D-Globus wird geladen...

Nächste Überflüge

Höhenverlauf

Altitude vs Time

uPlot chart will show altitude changes over time

Zweizeiliger Elementsatz

1 53192U 22084D 25299.42220204 .00000430 00000-0 34018-4 0 9996
2 53192 97.6027 358.8572 0001644 93.1829 266.9586 15.05647905179841
Epoch: 26. Okt. 2025 • Age: 8 hours

Aktueller Status

Höhe 563.1 km
Geschwindigkeit 7.58 km/s
Subsatellitenpunkt -34.15°S, 59.65°E
Startdatum 22. Juli 2022
Alter 3.2 years
Typ internet

Technische Details

Klassifizierung Payload
Masse 297.00 kg
Trockenmasse 275.00 kg
Gesamtmasse 297.00 kg
Länge 0.20 m
Durchmesser 2.80 m
Spannweite 9.00 m
Form Box + pan
Hersteller SPXS
Bus-Typ Starlink
Phasenstatus In Orbit
Besitzer/Staat SPXS/US

Große Konstellationen

Loading constellations...